Location: Huesca
(42.1318°N, 0.4078°W)
Time: 09:53:29
(UTC+02:00)

CUTE 1.7 + AOD 2 - Pass Details

Date: 02 May 2024
Orbit: 569 x 587 km, 97.8° (Epoch: 20 May)

Event Time Altitude Azimuth Distance (km) Brightness Sun altitude
Rises 06:01:50 0° 6° (N) 2,781 ? -9.7°
Reaches altitude 10° 06:04:02 10° 0° (N) 1,878 ? -9.4°
Maximum altitude 06:07:55 45° 288° (WNW) 777 ? -8.8°
Drops below altitude 10° 06:11:47 10° 215° (SW) 1,867 ? -8.1°
Enters shadow 06:12:20 - 213° (SSW) 2,090 ? -8.1°
